Date,TemperatureHighF,TemperatureAvgF,TemperatureLowF,DewpointHighF,DewpointAvgF,DewpointLowF,HumidityHigh,HumidityAvg,HumidityLow,PressureMaxIn,PressureMinIn,WindSpeedMaxMPH,WindSpeedAvgMPH,GustSpeedMaxMPH,PrecipitationSumIn
2013-1-1,34,31,23,32,29,20,98,91,78,30.17,30.06,10,2,10,0.01
2013-1-2,28,21,14,21,17,12,94,84,56,30.30,30.16,7,1,7,0.04
2013-1-3,35,22,11,25,17,8,94,81,53,30.34,30.25,18,2,20,0.04
2013-1-4,36,31,28,26,24,22,82,74,60,30.37,30.31,23,5,23,0.08
2013-1-5,42,31,25,30,26,22,92,80,60,30.39,30.18,15,2,15,0.19
2013-1-6,39,35,28,34,29,23,89,81,77,30.38,30.03,25,6,25,0.07
2013-1-7,40,28,20,29,24,19,96,84,63,30.50,30.27,11,1,11,0.02
2013-1-8,50,34,24,36,29,21,94,81,56,30.34,30.24,15,2,15,0.00
2013-1-9,54,43,34,46,38,30,94,80,59,30.51,30.22,18,4,18,0.04
2013-1-10,46,34,27,41,32,26,98,89,74,30.53,30.13,13,1,13,0.03
2013-1-11,61,54,46,56,50,41,97,86,71,30.13,29.90,18,5,21,0.32
2013-1-12,65,59,54,63,57,50,98,92,80,30.02,29.79,18,4,20,0.02
2013-1-13,66,57,35,62,55,33,98,94,82,30.13,29.70,28,7,28,0.86
2013-1-14,35,27,24,33,24,21,93,87,82,30.50,30.13,15,4,15,0.00
2013-1-15,32,28,23,28,24,21,92,86,79,30.43,30.11,13,3,13,0.00
2013-1-16,37,33,31,30,28,26,89,83,65,30.14,30.00,11,2,11,0.00
2013-1-17,44,34,27,34,27,21,89,78,62,30.41,30.11,16,3,16,0.00
2013-1-18,40,28,18,27,20,16,94,73,45,30.55,30.24,20,4,20,0.00
2013-1-19,55,43,37,32,28,26,67,56,38,30.25,29.91,25,9,30,0.00
2013-1-20,48,36,26,38,22,14,73,58,44,30.24,29.91,31,7,31,0.00
2013-1-21,26,22,12,19,12,1,86,67,49,30.29,30.12,26,6,26,0.00
2013-1-22,19,12,7,3,1,-1,73,60,45,30.44,30.28,18,5,18,0.00
2013-1-23,22,18,12,11,6,2,72,58,52,30.41,30.13,15,3,15,0.00
2013-1-24,25,20,14,16,9,4,76,64,42,30.63,30.14,26,5,26,0.00
2013-1-25,27,23,20,23,15,8,89,71,56,30.49,30.08,11,3,13,0.00
2013-1-26,33,25,19,23,20,16,92,81,63,30.48,30.15,11,3,13,0.04
2013-1-27,37,28,19,35,23,16,96,83,68,30.48,30.19,9,2,9,0.26
2013-1-28,53,46,36,52,45,35,98,95,83,30.20,30.02,21,6,27,0.30
2013-1-29,64,58,52,60,54,51,97,89,79,30.05,29.56,28,7,28,0.01
2013-1-30,68,56,33,61,52,26,98,86,75,29.56,29.24,34,10,34,0.93
2013-1-31,33,27,16,27,20,11,93,74,61,30.07,29.54,35,11,36,0.00
2013-2-1,18,12,7,11,5,1,84,74,63,30.45,30.07,27,6,30,0.00
2013-2-2,31,22,11,27,19,7,92,86,79,30.39,30.03,18,3,18,0.03
2013-2-3,28,22,17,25,17,10,89,80,72,30.15,29.97,17,5,17,0.00
2013-2-4,35,26,16,34,24,14,97,89,74,30.16,29.85,17,2,17,0.03
2013-2-5,37,32,26,34,29,23,97,88,78,30.03,29.86,16,3,16,0.07
2013-2-6,37,34,28,32,29,25,90,83,74,30.28,30.02,14,2,14,0.01
2013-2-7,59,41,30,42,33,26,90,75,45,30.24,29.80,16,2,16,0.00
2013-2-8,52,39,32,45,34,25,94,82,59,30.33,29.79,24,7,25,0.10
2013-2-9,34,26,20,26,21,17,93,81,66,30.45,30.33,8,1,8,0.00
2013-2-10,55,41,30,46,31,23,91,67,41,30.26,29.79,24,4,24,0.03
2013-2-11,53,48,38,50,40,29,96,74,51,30.03,29.75,35,9,35,0.01
2013-2-12,50,37,29,32,28,24,90,71,39,30.14,29.92,18,2,18,0.00
2013-2-13,36,32,29,31,29,26,95,89,72,29.92,29.79,11,2,13,0.08
2013-2-14,53,39,32,40,34,29,95,83,56,30.00,29.82,21,5,21,0.03
2013-2-15,40,32,21,35,29,19,95,87,69,30.18,29.99,23,2,23,0.01
2013-2-16,28,21,16,23,17,12,96,83,61,30.17,30.07,18,3,18,0.00
2013-2-17,32,21,13,17,13,10,91,71,41,30.28,30.16,12,2,12,0.01
2013-2-18,59,36,23,42,22,11,85,58,42,30.25,29.75,29,6,29,0.12
2013-2-19,46,34,24,42,29,16,95,80,65,30.13,29.65,33,10,33,0.17
2013-2-20,28,23,19,18,15,12,80,72,63,30.35,30.13,23,6,23,0.00
2013-2-21,31,25,21,27,19,15,89,78,69,30.39,30.08,19,4,24,0.00
2013-2-22,42,34,30,39,33,27,98,93,85,30.10,29.91,24,4,24,0.15
2013-2-23,43,36,32,34,30,26,97,80,56,30.01,29.92,14,3,14,0.00
2013-2-24,41,32,27,30,25,23,88,77,58,30.18,29.95,13,3,13,0.00
2013-2-25,47,33,22,32,26,20,93,75,51,30.21,29.92,15,2,15,0.00
2013-2-26,47,40,35,46,36,27,97,87,66,29.92,29.37,20,5,20,0.64
2013-2-27,43,38,33,41,36,31,95,92,84,29.72,29.51,27,7,27,0.06
2013-2-28,37,34,32,34,32,0,96,92,88,29.95,29.70,16,6,19,0.02
2013-3-1,37,34,30,34,31,24,97,90,76,30.06,29.94,15,3,15,0.02
2013-3-2,30,28,27,25,23,22,86,81,76,30.10,30.04,13,4,13,0.02
2013-3-3,32,28,22,26,23,19,88,80,67,30.11,30.07,16,3,17,0.00
2013-3-4,44,29,17,30,22,16,95,76,42,30.20,30.02,10,1,12,0.00
2013-3-5,38,36,32,36,33,29,98,89,74,30.04,29.58,14,4,15,0.53
2013-3-6,34,31,28,32,30,27,98,94,88,30.27,29.63,16,5,17,0.22
2013-3-7,39,34,31,33,30,27,95,88,75,30.40,30.26,10,2,10,0.00
2013-3-8,44,32,22,28,25,21,96,78,48,30.50,30.39,10,1,11,0.00
2013-3-9,57,42,30,40,32,26,89,71,45,30.40,30.04,12,2,12,0.00
2013-3-10,68,58,52,46,37,35,65,46,30,30.04,29.81,25,7,26,0.03
2013-3-11,58,50,39,52,46,34,96,87,60,29.84,29.57,27,6,29,1.08
2013-3-12,45,38,34,34,32,29,90,79,59,30.06,29.84,26,6,26,0.01
2013-3-13,35,31,27,31,26,21,93,82,62,30.33,30.02,25,7,29,0.00
2013-3-14,44,31,21,27,22,18,91,71,37,30.38,30.18,15,2,15,0.00
2013-3-15,52,40,30,41,33,25,94,78,60,30.19,29.78,14,2,14,0.00
2013-3-16,59,46,37,52,42,33,96,88,71,30.02,29.59,19,5,21,0.30
2013-3-17,38,36,34,33,31,29,89,83,77,30.16,30.01,15,4,15,0.00
2013-3-18,51,39,34,50,37,32,98,93,81,30.02,29.61,23,6,27,0.94
2013-3-19,44,37,29,36,26,17,88,66,35,30.11,29.82,34,9,34,0.00
2013-3-20,37,31,25,23,19,13,80,62,44,30.10,29.96,27,5,27,0.00
2013-3-21,32,25,20,19,16,13,89,68,53,30.06,29.97,18,5,18,0.00
2013-3-22,45,29,18,25,18,15,90,65,38,30.11,30.00,12,1,13,0.00
2013-3-23,52,37,28,30,26,21,86,65,36,30.09,29.90,14,1,14,0.00
2013-3-24,38,35,33,33,30,26,97,82,62,29.91,29.41,17,4,22,0.32
2013-3-25,34,32,30,33,31,29,97,95,92,29.96,29.44,17,3,19,0.05
2013-3-26,40,34,32,33,31,27,95,87,70,30.25,29.96,19,5,20,0.00
2013-3-27,44,35,29,34,28,24,91,76,52,30.32,30.24,17,3,17,0.00
2013-3-28,50,35,23,33,26,21,94,73,45,30.38,30.30,15,2,15,0.00
2013-3-29,56,39,27,36,30,25,95,72,43,30.34,30.21,12,1,12,0.00
2013-3-30,48,34,30,37,30,27,94,85,64,30.26,30.21,7,0,7,0.00
2013-3-31,58,50,46,49,43,36,97,79,57,29.94,29.76,23,3,24,0.08
2013-4-1,49,42,34,43,31,21,83,65,39,30.12,29.78,21,5,22,0.00
2013-4-2,47,33,22,27,20,17,89,62,33,30.28,30.11,17,2,19,0.00
2013-4-3,50,35,23,24,19,15,80,55,29,30.44,30.27,15,2,15,0.00
2013-4-4,58,41,32,29,21,13,64,47,18,30.36,29.99,10,2,12,0.00
2013-4-5,61,44,31,41,29,25,79,58,31,30.14,29.98,19,2,19,0.00
2013-4-6,68,49,36,40,30,25,68,50,31,30.22,29.89,15,4,16,0.00
2013-4-7,73,63,59,56,44,38,89,51,41,29.97,29.83,24,8,29,0.09
2013-4-8,72,61,53,58,54,51,97,81,57,29.98,29.84,23,5,27,0.19
2013-4-9,80,66,54,62,56,51,92,73,46,30.02,29.88,32,4,34,0.00
2013-4-10,83,72,64,67,61,58,81,71,51,29.92,29.73,28,6,29,0.00
2013-4-11,67,63,59,63,59,57,98,88,78,29.78,29.50,19,4,19,1.01
2013-4-12,59,48,41,58,43,33,98,82,62,29.92,29.48,26,7,26,0.17
2013-4-13,58,46,39,40,37,35,85,71,45,30.05,29.92,28,5,28,0.00
2013-4-14,72,52,39,48,40,35,87,67,37,30.07,29.86,13,2,13,0.00
2013-4-15,70,61,53,58,51,44,85,71,51,29.97,29.87,17,4,20,0.00
2013-4-16,80,64,57,66,58,54,98,82,58,30.15,29.91,25,5,25,0.36
2013-4-17,79,63,54,68,59,53,99,89,61,30.17,29.93,25,4,27,0.40
2013-4-18,82,72,65,66,60,54,84,68,44,29.93,29.56,34,9,35,0.00
2013-4-19,74,58,41,62,50,36,94,79,53,29.71,29.39,25,9,27,0.65
2013-4-20,50,41,36,35,32,28,89,71,44,30.41,29.97,19,6,21,0.00
2013-4-21,58,43,30,38,30,25,82,63,37,30.55,30.38,12,2,13,0.00
2013-4-22,69,46,36,48,33,29,78,61,38,30.38,30.21,8,1,9,0.00
2013-4-23,70,59,47,54,47,40,81,66,53,30.13,29.82,18,4,25,0.00
2013-4-24,66,53,38,57,46,34,96,79,60,30.21,29.75,24,7,28,0.68
2013-4-25,59,44,34,42,35,30,98,75,41,30.39,30.21,27,4,27,0.00
2013-4-26,62,46,32,41,34,30,95,68,34,30.48,30.34,8,1,10,0.00
2013-4-27,68,54,41,53,42,35,87,66,37,30.35,30.04,20,2,20,0.01
2013-4-28,67,59,56,61,56,52,96,89,77,30.04,29.80,15,3,16,0.10
2013-4-29,64,58,54,58,55,52,98,90,74,29.98,29.86,10,2,11,0.01
2013-4-30,80,62,49,61,54,48,99,78,41,30.03,29.95,11,1,11,0.00
2013-5-1,84,67,51,66,57,50,97,72,41,30.14,30.02,11,1,14,0.00
2013-5-2,74,67,61,60,55,52,76,66,53,30.18,30.09,11,3,13,0.00
2013-5-3,78,68,61,61,54,41,81,64,36,30.06,29.92,15,3,15,0.00
2013-5-4,72,64,58,54,48,41,81,56,43,29.97,29.90,14,4,15,0.00
2013-5-5,61,56,53,54,51,44,96,83,55,29.97,29.90,12,1,14,0.27
2013-5-6,62,57,53,59,55,52,98,94,86,29.95,29.88,14,3,14,0.56
2013-5-7,74,62,56,62,58,55,97,87,57,29.97,29.88,12,2,12,0.01
2013-5-8,78,62,52,63,57,51,98,85,47,29.97,29.90,24,2,24,0.41
2013-5-9,80,65,53,65,57,53,99,81,41,30.00,29.90,20,1,20,0.00
2013-5-10,69,63,60,64,61,58,98,94,75,29.95,29.77,25,3,25,1.07
2013-5-11,62,53,44,61,50,42,97,90,75,30.00,29.82,18,4,23,0.24
2013-5-12,56,46,38,42,38,32,97,75,43,30.12,29.99,20,3,21,0.00
2013-5-13,61,50,38,40,37,31,94,65,33,30.18,30.11,21,3,21,0.00
2013-5-14,81,61,44,60,47,37,84,61,44,30.14,29.80,25,4,29,0.00
2013-5-15,87,76,68,65,60,58,75,60,42,29.84,29.75,26,7,26,0.00
2013-5-16,77,70,63,69,62,58,96,77,56,29.95,29.80,15,3,16,0.16
2013-5-17,80,66,58,70,63,58,99,92,63,30.03,29.94,22,1,23,0.19
2013-5-18,79,68,62,70,65,62,99,92,66,30.04,29.93,14,0,14,0.04
2013-5-19,85,71,62,72,66,62,99,87,56,29.98,29.85,10,1,11,0.00
2013-5-20,85,76,68,74,69,66,97,82,59,29.96,29.83,17,3,18,0.00
2013-5-21,84,75,68,69,66,62,88,75,53,29.93,29.74,22,5,24,0.00
2013-5-22,78,70,65,68,64,62,97,84,62,29.80,29.69,22,4,23,0.02
2013-5-23,68,63,52,64,60,48,98,90,71,30.07,29.76,23,4,24,0.05
2013-5-24,66,54,48,48,44,38,88,71,40,30.31,30.06,17,4,22,0.00
2013-5-25,65,53,43,53,45,41,95,76,44,30.39,30.21,9,1,9,0.01
2013-5-26,70,60,51,53,49,44,93,70,42,30.30,30.16,6,0,6,0.00
2013-5-27,82,66,53,66,55,48,96,70,42,30.18,29.91,17,2,19,0.02
2013-5-28,82,76,69,69,63,60,80,66,51,29.98,29.88,25,6,25,0.00
2013-5-29,86,76,69,68,63,58,77,64,41,30.04,29.94,21,5,23,0.00
2013-5-30,86,77,70,73,67,64,88,73,55,30.09,29.95,17,3,17,0.00
2013-5-31,82,74,67,71,67,65,98,81,65,30.01,29.89,39,5,40,0.85
2013-6-1,80,73,68,71,68,66,98,85,67,29.92,29.73,24,6,30,0.00
2013-6-2,78,70,65,68,63,59,92,80,57,29.91,29.76,20,5,20,0.00
2013-6-3,68,61,55,59,54,50,89,78,60,30.04,29.90,15,3,17,0.00
2013-6-4,77,61,49,52,48,41,96,68,35,30.14,30.03,13,1,13,0.00
2013-6-5,82,68,57,66,56,50,88,68,48,30.06,29.81,9,1,9,0.00
2013-6-6,70,67,64,68,65,62,98,94,87,29.83,29.74,12,1,12,0.91
2013-6-7,76,65,59,64,59,57,96,83,58,29.87,29.76,12,2,13,0.00
2013-6-8,74,64,56,64,58,54,95,83,67,30.01,29.85,11,1,13,0.00
2013-6-9,80,70,62,69,64,61,97,82,57,30.04,29.86,12,1,14,0.01
2013-6-10,79,68,64,69,65,62,98,90,60,29.87,29.74,25,2,32,0.69
2013-6-11,85,72,62,71,66,62,99,84,51,29.93,29.83,13,2,17,0.01
2013-6-12,90,79,72,78,71,67,88,78,59,29.88,29.66,18,4,22,0.00
2013-6-13,83,73,65,74,66,57,98,80,53,29.89,29.54,24,5,25,0.87
2013-6-14,80,68,56,66,58,54,96,75,48,30.02,29.88,14,2,15,0.00
2013-6-15,82,68,57,67,61,56,98,79,52,30.09,29.91,12,1,14,0.00
2013-6-16,77,72,68,69,66,64,93,82,74,29.98,29.90,19,3,19,0.04
2013-6-17,87,74,68,73,68,66,97,84,50,29.94,29.83,19,1,20,0.00
2013-6-18,85,72,66,74,66,61,98,81,52,29.95,29.81,18,2,18,0.16
2013-6-19,81,68,58,62,58,53,91,71,46,30.09,29.95,11,2,11,0.00
2013-6-20,86,70,58,67,60,55,94,72,42,30.17,30.08,8,0,8,0.00
2013-6-21,87,72,60,70,63,58,97,76,48,30.17,30.07,12,1,12,0.00
2013-6-22,88,75,68,76,69,66,95,82,59,30.13,30.01,22,3,27,0.03
2013-6-23,89,74,66,73,68,65,99,84,51,30.10,30.00,28,2,36,0.01
2013-6-24,86,74,66,74,69,64,97,84,57,30.10,29.97,17,2,18,0.01
2013-6-25,90,78,69,77,71,68,96,82,58,30.02,29.82,22,4,23,0.00
2013-6-26,85,74,68,76,70,67,98,87,68,29.90,29.72,24,4,24,0.35
2013-6-27,86,74,67,75,70,67,99,89,63,29.76,29.64,19,4,19,0.04
2013-6-28,85,74,65,71,67,60,96,81,47,29.65,29.54,28,5,28,0.07
2013-6-29,76,67,62,70,64,61,98,90,73,29.63,29.54,12,2,12,0.28
2013-6-30,78,69,65,70,66,62,99,91,69,29.80,29.62,21,3,21,0.40
2013-7-1,78,69,64,71,66,61,98,92,75,29.89,29.78,15,4,15,0.78
2013-7-2,82,71,66,72,67,65,99,89,61,29.97,29.87,13,3,13,0.07
2013-7-3,80,74,68,71,69,66,98,85,65,30.07,29.97,17,4,17,0.00
2013-7-4,73,69,68,70,69,67,99,98,91,30.12,30.03,18,3,18,1.75
2013-7-5,77,71,66,72,69,66,100,94,81,30.11,30.05,12,4,12,0.07
2013-7-6,77,71,68,74,70,67,100,95,86,30.09,29.99,21,4,21,2.19
2013-7-7,83,72,65,72,68,64,99,87,63,30.09,29.99,13,3,13,0.00
2013-7-8,86,77,68,75,71,67,97,82,66,30.09,29.99,18,6,18,0.00
2013-7-9,89,80,74,78,74,71,97,83,66,30.03,29.93,20,7,20,0.08
2013-7-10,88,78,68,80,73,66,97,86,72,29.94,29.79,29,7,29,0.04
2013-7-11,81,72,64,69,65,58,97,80,60,29.99,29.88,14,4,14,0.00
2013-7-12,80,70,58,65,60,56,96,74,50,30.07,29.99,14,4,14,0.00
2013-7-13,83,74,65,71,66,61,89,76,59,30.10,30.01,12,4,12,0.00
2013-7-14,89,78,67,77,71,65,96,81,64,30.18,30.09,13,3,13,0.02
2013-7-15,90,80,71,76,72,70,97,79,56,30.26,30.17,13,2,13,0.00
2013-7-16,92,81,71,78,73,69,98,78,54,30.29,30.19,8,1,8,0.00
2013-7-17,92,82,72,78,75,71,98,79,56,30.27,30.13,12,3,12,0.00
2013-7-18,94,83,72,76,73,67,98,75,45,30.15,29.96,13,2,13,0.00
2013-7-19,89,80,75,78,75,71,96,85,66,29.99,29.83,20,5,20,0.10
2013-7-20,88,78,72,78,72,68,94,82,65,29.88,29.78,23,8,23,0.08
2013-7-21,88,76,68,75,71,66,97,84,60,29.93,29.82,9,2,9,0.00
2013-7-22,80,74,71,74,71,69,96,91,74,29.86,29.71,10,3,10,0.04
2013-7-23,86,74,68,78,71,64,99,90,57,29.78,29.68,26,6,26,0.51
2013-7-24,77,67,58,66,60,56,95,79,62,29.96,29.78,12,5,12,0.00
2013-7-25,79,66,55,62,57,53,95,73,48,30.06,29.96,12,3,12,0.00
2013-7-26,81,68,55,64,60,54,98,76,50,30.06,29.93,14,2,16,0.00
2013-7-27,77,69,63,68,63,58,98,83,54,29.93,29.80,20,6,20,0.31
2013-7-28,73,64,54,58,54,51,94,72,52,30.02,29.87,20,6,20,0.00
2013-7-29,78,66,54,61,57,52,96,75,49,30.15,30.02,20,4,20,0.00
2013-7-30,78,68,56,66,60,54,98,79,54,30.20,30.08,8,1,8,0.00
2013-7-31,75,70,65,69,66,63,96,87,79,30.08,29.90,14,3,14,0.01
2013-8-1,82,73,64,70,65,57,97,78,47,29.96,29.88,16,6,16,0.01
2013-8-2,83,71,57,67,62,56,97,76,51,29.98,29.91,26,6,26,0.00
2013-8-3,81,72,68,71,67,63,97,84,56,29.99,29.92,12,3,12,0.19
2013-8-4,78,68,58,64,58,55,89,71,48,30.10,29.99,14,6,14,0.00
2013-8-5,80,68,55,63,58,54,98,74,49,30.09,29.93,12,2,12,0.00
2013-8-6,82,72,61,70,64,58,93,78,64,29.95,29.87,13,4,15,0.00
2013-8-7,84,76,69,75,71,67,96,86,71,29.90,29.82,15,4,15,0.00
2013-8-8,85,76,70,77,73,69,97,90,74,29.91,29.83,15,4,15,0.26
2013-8-9,82,74,70,74,71,69,99,92,69,29.99,29.85,10,3,10,0.17
2013-8-10,85,75,67,73,70,66,99,84,58,30.07,29.98,7,1,7,0.00
2013-8-11,86,76,67,74,69,66,98,82,60,30.05,29.98,14,3,14,0.00
2013-8-12,85,74,64,72,68,63,98,82,54,30.04,29.83,15,4,15,0.06
2013-8-13,78,71,60,72,64,51,94,78,57,30.02,29.81,16,6,16,0.00
2013-8-14,73,61,52,54,51,50,93,73,49,30.15,30.02,13,4,13,0.00
2013-8-15,75,62,48,58,53,47,98,76,50,30.16,30.06,9,2,9,0.00
2013-8-16,78,66,54,60,56,52,95,72,48,30.13,30.08,12,3,12,0.00
2013-8-17,82,69,56,66,60,54,94,75,46,30.16,30.08,14,3,14,0.00
2013-8-18,83,70,58,67,62,56,98,77,45,30.15,30.05,9,2,9,0.00
2013-8-19,85,72,60,67,62,59,98,75,44,30.10,30.02,9,2,9,0.00
2013-8-20,86,73,61,70,64,60,98,75,48,30.14,30.04,12,2,12,0.00
2013-8-21,87,76,67,74,68,64,94,79,52,30.12,30.01,14,3,14,0.00
2013-8-22,86,75,68,73,69,66,96,82,58,30.07,29.98,20,5,20,0.00
2013-8-23,85,74,65,72,67,64,99,83,57,30.11,30.00,10,3,10,0.20
2013-8-24,86,72,58,69,62,56,94,72,46,30.23,30.11,9,3,9,0.00
2013-8-25,88,74,59,65,62,54,97,70,34,30.30,30.17,12,2,13,0.00
2013-8-26,89,75,62,73,67,61,97,78,52,30.21,30.03,15,4,15,0.00
2013-8-27,91,80,70,76,72,68,96,79,60,30.03,29.90,16,6,16,0.00
2013-8-28,93,82,75,77,74,72,93,77,52,29.92,29.82,25,9,25,0.00
2013-8-29,87,76,69,74,71,68,98,84,60,30.00,29.91,12,3,12,0.00
2013-8-30,92,77,66,73,68,65,99,78,46,29.95,29.78,15,3,15,0.00
2013-8-31,93,77,69,77,72,68,97,84,57,29.83,29.69,27,5,27,0.73
2013-9-1,86,75,67,73,70,66,98,85,64,29.80,29.72,14,5,14,0.09
2013-9-2,84,76,69,75,70,61,98,82,59,29.85,29.73,20,6,20,0.01
2013-9-3,75,66,57,61,58,55,93,76,56,30.02,29.85,12,5,15,0.01
2013-9-4,82,67,53,64,59,52,98,78,47,30.12,30.02,14,2,14,0.00
2013-9-5,85,70,58,66,60,51,98,73,49,30.17,30.08,10,3,10,0.00
2013-9-6,81,66,53,55,52,44,89,63,36,30.21,30.07,10,2,10,0.00
2013-9-7,86,70,55,68,60,52,95,73,49,30.08,29.92,17,4,17,0.00
2013-9-8,90,77,66,71,68,64,97,76,49,29.95,29.88,11,2,12,0.01
2013-9-9,91,78,67,73,69,66,98,76,47,29.99,29.91,17,6,18,0.00
2013-9-10,92,82,75,77,73,70,89,75,58,30.08,29.97,17,6,20,0.00
2013-9-11,92,80,72,77,72,69,95,78,53,30.10,29.96,14,5,14,0.06
2013-9-12,80,74,67,73,70,62,96,85,65,29.96,29.81,14,6,14,0.07
2013-9-13,67,59,53,62,51,46,90,74,51,30.07,29.88,16,8,16,0.00
2013-9-14,72,56,43,50,46,42,97,72,39,30.18,30.07,10,2,10,0.00
2013-9-15,78,62,45,59,52,44,97,73,45,30.14,30.00,23,4,23,0.00
2013-9-16,73,63,57,60,57,52,95,80,57,30.25,30.05,12,4,12,0.01
2013-9-17,76,62,50,57,53,48,96,74,46,30.31,30.13,12,4,12,0.00
2013-9-18,80,67,59,66,60,54,95,80,56,30.14,30.02,13,3,13,0.00
2013-9-19,82,70,65,70,67,64,98,89,64,30.05,29.93,21,4,21,0.26
2013-9-20,86,73,68,71,68,67,98,87,60,29.96,29.75,26,7,26,1.57
2013-9-21,74,65,56,68,59,50,99,83,48,29.85,29.65,17,6,17,0.53
2013-9-22,69,57,48,51,48,46,96,75,45,30.00,29.85,13,4,13,0.00
2013-9-23,70,56,44,53,48,43,97,76,50,30.11,30.00,11,3,12,0.00
2013-9-24,75,59,44,60,51,43,97,78,56,30.09,29.90,8,2,8,0.00
2013-9-25,73,61,52,58,53,50,93,77,50,29.91,29.85,8,2,8,0.00
2013-9-26,80,61,47,64,54,46,99,82,53,30.04,29.90,8,1,10,0.00
2013-9-27,80,63,49,58,52,47,97,72,39,30.15,30.04,7,1,7,0.00
2013-9-28,80,64,50,61,56,49,98,75,47,30.17,30.03,14,2,14,0.00
2013-9-29,69,62,58,62,59,56,97,91,74,30.03,29.97,16,4,16,0.08
2013-9-30,72,64,61,65,62,59,98,92,78,30.00,29.92,10,3,15,0.04
2013-10-1,77,66,58,66,62,57,99,87,66,30.06,29.98,16,4,16,0.01
2013-10-2,78,68,60,71,65,59,98,90,74,30.08,30.00,8,2,8,0.00
2013-10-3,78,71,67,72,68,66,99,92,70,30.05,29.96,20,3,20,1.35
2013-10-4,80,71,64,74,68,64,99,91,72,30.05,29.97,12,3,12,0.00
2013-10-5,79,71,67,72,69,66,98,93,78,30.02,29.90,15,6,17,0.55
2013-10-6,71,64,54,69,63,52,99,97,89,29.92,29.67,25,7,25,1.96
2013-10-7,62,53,46,54,47,44,97,83,59,30.15,29.80,20,7,21,0.00
2013-10-8,68,53,40,52,46,40,99,80,46,30.28,30.15,12,2,12,0.00
2013-10-9,74,57,44,56,49,43,97,78,44,30.24,30.14,12,2,12,0.00
2013-10-10,74,56,42,54,47,41,98,77,39,30.18,30.06,6,1,6,0.00
2013-10-11,79,60,45,58,51,44,98,78,43,30.10,30.00,6,1,6,0.00
2013-10-12,78,62,49,64,56,48,99,84,50,30.09,30.01,10,1,10,0.00
2013-10-13,74,62,53,62,55,44,99,79,50,30.27,30.09,12,4,12,0.00
2013-10-14,72,58,46,55,48,43,91,71,45,30.32,30.16,13,4,13,0.00
2013-10-15,73,60,50,66,58,48,98,91,75,30.17,29.91,18,3,18,0.00
2013-10-16,68,62,48,63,57,46,98,85,60,29.93,29.85,16,6,16,0.06
2013-10-17,54,48,41,50,45,40,98,91,80,29.98,29.86,17,4,17,0.11
2013-10-18,64,52,43,51,46,42,98,81,51,30.04,29.93,20,6,20,0.00
2013-10-19,53,47,42,47,44,39,96,89,73,30.00,29.82,17,5,17,0.14
2013-10-20,62,50,39,48,42,37,94,76,53,30.04,29.98,22,9,22,0.01
2013-10-21,65,54,43,50,44,40,90,71,49,30.01,29.88,24,9,24,0.01
2013-10-22,52,44,33,46,34,28,90,69,40,30.05,29.85,17,4,17,0.05
2013-10-23,46,42,36,40,36,31,96,83,59,30.05,29.75,20,7,20,0.23
2013-10-24,43,39,36,38,35,33,96,88,70,30.27,30.05,20,6,20,0.12
2013-10-25,48,38,29,36,31,28,95,78,47,30.45,30.27,18,5,18,0.02
2013-10-26,52,42,33,42,34,29,87,72,59,30.30,29.94,28,8,29,0.00
2013-10-27,57,43,32,41,36,30,98,78,47,30.12,30.05,14,2,14,0.00
2013-10-28,63,44,30,43,36,29,98,77,42,30.30,30.09,6,1,6,0.00
2013-10-29,57,47,35,49,42,34,98,84,68,30.35,30.21,5,1,5,0.00
2013-10-30,63,58,52,62,57,48,99,97,86,30.21,29.97,12,3,12,0.13
2013-10-31,65,62,57,64,60,55,98,92,82,29.99,29.32,35,15,37,1.01
2013-11-1,62,56,49,56,49,44,96,77,53,29.74,29.39,27,13,27,0.03
2013-11-2,54,49,45,45,43,38,88,78,59,30.01,29.72,20,9,20,0.00
2013-11-3,54,47,40,44,40,37,97,78,58,30.37,30.27,10,2,10,0.00
2013-11-4,57,48,39,46,40,34,90,73,57,30.41,30.30,17,4,17,0.00
2013-11-5,61,54,49,47,45,40,91,71,58,30.40,30.20,13,4,13,0.01
2013-11-6,65,57,45,59,49,39,97,78,59,30.20,29.95,28,12,30,0.35
2013-11-7,49,43,37,43,35,29,96,75,48,30.25,30.01,22,8,22,0.06
2013-11-8,51,40,30,36,32,28,95,76,47,30.38,30.21,20,5,20,0.00
2013-11-9,61,50,39,42,36,29,72,59,43,30.25,30.01,34,13,35,0.00
2013-11-10,51,44,31,42,34,29,92,70,53,30.35,30.09,21,9,21,0.00
2013-11-11,54,42,30,44,35,28,95,79,44,30.32,30.09,22,6,22,0.14
2013-11-12,36,30,26,33,25,22,96,84,60,30.64,30.27,20,9,20,0.05
2013-11-13,40,30,20,25,21,18,94,71,43,30.66,30.42,18,5,20,0.00
2013-11-14,54,41,29,27,24,21,78,53,29,30.42,30.16,26,9,26,0.00
2013-11-15,53,45,36,44,32,24,86,59,44,30.18,30.09,22,7,22,0.00
2013-11-16,61,53,47,56,50,43,95,89,84,30.14,29.89,21,9,23,0.00
2013-11-17,64,60,52,63,56,42,97,88,61,29.90,29.48,47,17,47,0.75
2013-11-18,52,46,36,42,36,29,87,69,53,30.19,29.76,30,12,30,0.00
2013-11-19,44,35,28,33,29,26,93,80,61,30.36,30.19,12,3,12,0.00
2013-11-20,51,38,28,36,31,24,90,74,52,30.36,30.23,17,5,17,0.00
2013-11-21,57,49,42,50,41,33,95,75,60,30.32,30.19,20,5,20,0.04
2013-11-22,54,48,38,53,46,32,98,91,77,30.37,30.15,19,8,20,0.12
2013-11-23,38,31,22,32,24,12,95,77,55,30.58,30.36,26,10,26,0.00
2013-11-24,29,21,15,17,13,10,87,71,56,30.72,30.56,17,4,17,0.00
2013-11-25,38,30,18,30,19,15,86,65,46,30.57,30.21,22,8,22,0.00
2013-11-26,35,34,32,33,31,28,96,91,81,30.23,29.93,13,3,13,0.01
2013-11-27,34,28,22,30,21,16,87,76,67,30.32,29.93,22,12,22,0.00
2013-11-28,35,27,19,20,17,14,81,68,50,30.47,30.31,20,7,20,0.00
2013-11-29,42,29,17,26,21,15,93,75,50,30.66,30.47,9,3,9,0.00
2013-11-30,51,37,25,32,28,21,87,71,45,30.54,30.19,17,5,17,0.00
2013-12-1,51,44,38,39,34,29,82,69,61,30.19,29.96,20,6,20,0.00
2013-12-2,52,43,35,42,38,33,95,84,67,29.96,29.78,10,3,10,0.02
2013-12-3,52,43,34,48,42,32,98,93,82,29.89,29.79,8,3,8,0.01
2013-12-4,62,55,47,58,52,45,97,91,84,29.86,29.70,25,8,25,0.00
2013-12-5,63,48,32,60,45,30,97,89,81,30.16,29.73,20,9,20,0.24
2013-12-6,32,29,26,30,27,26,97,95,89,30.42,30.13,14,6,14,0.58
2013-12-7,27,22,16,26,20,14,97,93,88,30.63,30.41,9,3,9,0.00
2013-12-8,32,25,17,32,23,15,98,93,89,30.56,30.04,14,6,14,0.00
2013-12-9,33,30,24,32,27,19,98,90,80,30.25,30.02,21,10,21,0.00
2013-12-10,29,23,20,20,18,14,94,79,60,30.39,30.18,28,9,28,0.12
2013-12-11,36,23,14,25,18,10,93,80,58,30.55,30.30,20,8,20,0.00
2013-12-12,25,17,5,12,8,2,89,68,42,30.59,30.38,17,7,17,0.00
2013-12-13,38,29,18,32,20,11,94,70,56,30.39,30.18,16,5,16,0.02
2013-12-14,38,35,31,37,34,30,98,97,94,30.19,29.72,23,7,23,0.32
2013-12-15,31,28,27,30,24,21,95,85,73,30.15,29.89,29,14,29,0.00
2013-12-16,33,30,27,32,28,24,96,93,84,30.15,30.00,13,3,13,0.06
2013-12-17,35,30,28,33,27,25,95,89,84,30.18,29.99,26,10,26,0.00
2013-12-18,36,30,23,26,22,19,93,72,50,30.30,30.07,23,10,23,0.00
2013-12-19,53,46,35,43,34,23,74,63,57,30.09,29.95,20,10,23,0.00
2013-12-20,60,54,52,58,48,39,95,79,59,29.95,29.80,26,14,26,0.03
2013-12-21,67,61,57,63,59,56,99,96,89,29.80,29.43,34,14,34,1.77
2013-12-22,62,53,39,61,50,37,97,89,77,30.01,29.48,41,15,41,0.34
2013-12-23,35,31,26,33,25,20,92,80,71,30.41,30.12,20,10,20,0.01
2013-12-24,26,19,14,22,14,9,89,79,68,30.58,30.38,20,7,20,0.00
2013-12-25,34,27,18,25,18,15,86,71,54,30.54,30.22,17,6,17,0.00
2013-12-26,40,34,30,29,25,21,84,69,50,30.38,30.21,34,11,34,0.00
2013-12-27,49,38,30,33,29,25,82,69,54,30.42,30.29,16,7,16,0.00
2013-12-28,54,44,37,37,32,30,78,65,50,30.29,30.02,17,7,17,0.00
2013-12-29,44,39,33,41,36,30,97,88,60,30.04,29.80,20,7,23,0.33
2013-12-30,33,27,23,30,22,17,88,79,70,30.26,30.04,18,8,18,0.00
2013-12-31,34,28,23,24,19,16,80,69,58,30.40,30.19,25,11,25,0.00
2014-1-1,45,34,24,32,27,21,89,75,55,30.32,30.03,16,3,16,0.00
2014-1-2,34,24,10,31,22,6,96,91,84,30.31,29.84,22,7,24,0.28